BTK6355 WAHS-WIII

Flight info

Callsign BTK6355
Flight time 0h 51m
Altitude 32000
Route KIDET W16 IMU
Aircraft A320/M-SDE3FGHIRWY/LB1

Departure

Time 2026-04-15 06:35
Airport Jenderal Ahmad Yani Airport (WAHS)

Arrival

Time 2026-04-15 07:26
Airport Soekarno-Hatta International Airport (WIII)
Time Latitude Longitude Altitude Speed Heading
2026-04-15 05:50 -6.96737 110.37489 19 ft 0 kts 40°
2026-04-15 06:25 -6.96748 110.37480 19 ft 3 kts 40°
2026-04-15 06:25 -6.96764 110.37466 19 ft 3 kts 40°
2026-04-15 06:25 -6.96779 110.37454 20 ft 3 kts 33°
2026-04-15 06:26 -6.96795 110.37446 19 ft 3 kts 355°
2026-04-15 06:26 -6.96812 110.37452 20 ft 3 kts 318°
2026-04-15 06:26 -6.96822 110.37463 18 ft 1 kts 310°
2026-04-15 06:26 -6.96823 110.37463 18 ft 0 kts 310°
2026-04-15 06:27 -6.96820 110.37459 18 ft 2 kts 310°
2026-04-15 06:28 -6.96812 110.37451 18 ft 5 kts 310°
2026-04-15 06:28 -6.96762 110.37391 20 ft 12 kts 309°
2026-04-15 06:28 -6.96712 110.37331 20 ft 10 kts 310°
2026-04-15 06:28 -6.96669 110.37279 20 ft 9 kts 310°
2026-04-15 06:29 -6.96632 110.37235 19 ft 7 kts 310°
2026-04-15 06:29 -6.96613 110.37206 19 ft 3 kts 276°
2026-04-15 06:29 -6.96624 110.37192 18 ft 2 kts 224°
2026-04-15 06:29 -6.96636 110.37181 20 ft 2 kts 221°
2026-04-15 06:30 -6.96672 110.37151 18 ft 10 kts 220°
2026-04-15 06:30 -6.96710 110.37119 16 ft 3 kts 219°
2026-04-15 06:30 -6.96728 110.37104 16 ft 0 kts 219°
2026-04-15 06:30 -6.96730 110.37102 15 ft 0 kts 219°
2026-04-15 06:31 -6.96748 110.37087 14 ft 11 kts 219°
2026-04-15 06:31 -6.96789 110.37012 7 ft 14 kts 285°
2026-04-15 06:31 -6.96736 110.36938 7 ft 14 kts 310°
2026-04-15 06:32 -6.96647 110.36834 7 ft 23 kts 310°
2026-04-15 06:32 -6.96543 110.36710 7 ft 24 kts 311°
2026-04-15 06:32 -6.96429 110.36574 5 ft 26 kts 310°
2026-04-15 06:32 -6.96321 110.36448 4 ft 15 kts 310°
2026-04-15 06:33 -6.96288 110.36375 4 ft 9 kts 285°
2026-04-15 06:33 -6.96277 110.36344 5 ft 3 kts 297°
2026-04-15 06:33 -6.96245 110.36345 4 ft 6 kts 55°
2026-04-15 06:33 -6.96258 110.36375 4 ft 4 kts 131°
2026-04-15 06:34 -6.96274 110.36394 6 ft 3 kts 131°
2026-04-15 06:34 -6.96301 110.36426 5 ft 23 kts 131°
2026-04-15 06:34 -6.96585 110.36760 6 ft 98 kts 130°
2026-04-15 06:34 -6.97160 110.37440 5 ft 154 kts 129°
2026-04-15 06:35 -6.97894 110.38320 466 ft 166 kts 128°
2026-04-15 06:35 -6.98520 110.39292 1205 ft 165 kts 110°
2026-04-15 06:35 -6.98849 110.40407 1936 ft 163 kts 101°
2026-04-15 06:35 -6.99170 110.41516 2433 ft 174 kts 111°
2026-04-15 06:36 -6.99661 110.42693 2779 ft 189 kts 113°
2026-04-15 06:36 -7.00236 110.43972 3064 ft 213 kts 115°
2026-04-15 06:36 -7.00890 110.45404 3450 ft 236 kts 115°
2026-04-15 06:36 -7.01589 110.46977 3928 ft 254 kts 114°
2026-04-15 06:37 -7.02296 110.48660 4535 ft 267 kts 110°
2026-04-15 06:37 -7.02717 110.50493 5344 ft 272 kts 90°
2026-04-15 06:37 -7.02236 110.52326 6164 ft 276 kts 57°
2026-04-15 06:37 -7.00871 110.53692 6967 ft 281 kts 33°
2026-04-15 06:38 -6.99057 110.54468 7754 ft 287 kts 13°
2026-04-15 06:38 -6.97080 110.54830 8510 ft 291 kts 11°
2026-04-15 06:38 -6.95084 110.55242 9289 ft 293 kts 13°
2026-04-15 06:38 -6.93093 110.55714 10045 ft 297 kts 14°
2026-04-15 06:39 -6.91034 110.56220 10405 ft 315 kts 14°
2026-04-15 06:39 -6.88820 110.56754 10585 ft 338 kts 14°
2026-04-15 06:39 -6.86468 110.57308 10920 ft 353 kts 13°
2026-04-15 06:39 -6.84058 110.57860 11525 ft 358 kts 13°
2026-04-15 06:40 -6.81613 110.58408 12176 ft 362 kts 13°
2026-04-15 06:40 -6.79126 110.58862 12797 ft 366 kts
2026-04-15 06:40 -6.76582 110.58710 13411 ft 370 kts 348°
2026-04-15 06:40 -6.74141 110.57874 14015 ft 373 kts 333°
2026-04-15 06:41 -6.71991 110.56406 14610 ft 376 kts 317°
2026-04-15 06:41 -6.70287 110.54400 15193 ft 379 kts 304°
2026-04-15 06:41 -6.68807 110.52193 15773 ft 382 kts 304°
2026-04-15 06:41 -6.67317 110.49961 16336 ft 385 kts 304°
2026-04-15 06:42 -6.65818 110.47721 16886 ft 388 kts 304°
2026-04-15 06:42 -6.64304 110.45461 17401 ft 391 kts 304°
2026-04-15 06:42 -6.62779 110.43186 17906 ft 394 kts 304°
2026-04-15 06:42 -6.61244 110.40896 18418 ft 396 kts 304°
2026-04-15 06:43 -6.59717 110.38619 18884 ft 399 kts 304°
2026-04-15 06:43 -6.58156 110.36293 19311 ft 403 kts 304°
2026-04-15 06:43 -6.56583 110.33951 19749 ft 406 kts 304°
2026-04-15 06:43 -6.54997 110.31588 20185 ft 409 kts 304°
2026-04-15 06:44 -6.53397 110.29206 20589 ft 413 kts 304°
2026-04-15 06:44 -6.51784 110.26803 20974 ft 416 kts 304°
2026-04-15 06:44 -6.50250 110.24315 21354 ft 420 kts 297°
2026-04-15 06:44 -6.49127 110.21598 21721 ft 423 kts 287°
2026-04-15 06:45 -6.48433 110.18719 22090 ft 425 kts 281°
2026-04-15 06:45 -6.47817 110.15802 22455 ft 428 kts 281°
2026-04-15 06:45 -6.47199 110.12864 22804 ft 431 kts 281°
2026-04-15 06:45 -6.46576 110.09906 23149 ft 434 kts 281°
2026-04-15 06:46 -6.45943 110.06933 23503 ft 437 kts 281°
2026-04-15 06:46 -6.45303 110.03936 23828 ft 439 kts 281°
2026-04-15 06:46 -6.44662 110.00921 24152 ft 442 kts 281°
2026-04-15 06:46 -6.44019 109.97892 24475 ft 445 kts 281°
2026-04-15 06:47 -6.43369 109.94844 24808 ft 447 kts 281°
2026-04-15 06:47 -6.42713 109.91780 25126 ft 449 kts 281°
2026-04-15 06:47 -6.42054 109.88700 25424 ft 452 kts 281°
2026-04-15 06:47 -6.41394 109.85606 25733 ft 454 kts 281°
2026-04-15 06:48 -6.40731 109.82495 26036 ft 456 kts 281°
2026-04-15 06:48 -6.40066 109.79377 26317 ft 458 kts 281°
2026-04-15 06:48 -6.39399 109.76241 26605 ft 460 kts 281°
2026-04-15 06:48 -6.38729 109.73089 26886 ft 462 kts 281°
2026-04-15 06:49 -6.38057 109.69929 27164 ft 464 kts 281°
2026-04-15 06:49 -6.37380 109.66754 27437 ft 466 kts 281°
2026-04-15 06:49 -6.36698 109.63564 27711 ft 467 kts 281°
2026-04-15 06:50 -6.35324 109.57151 28227 ft 471 kts 281°
2026-04-15 06:50 -6.34633 109.53927 28473 ft 473 kts 281°
2026-04-15 06:50 -6.33939 109.50695 28715 ft 474 kts 281°
2026-04-15 06:50 -6.33240 109.47447 28925 ft 476 kts 281°
2026-04-15 06:51 -6.32539 109.44189 29145 ft 478 kts 281°
2026-04-15 06:51 -6.31839 109.40913 29370 ft 480 kts 281°
2026-04-15 06:51 -6.31136 109.37629 29593 ft 481 kts 281°
2026-04-15 06:51 -6.30443 109.34330 29810 ft 482 kts 279°
2026-04-15 06:52 -6.30087 109.30986 30046 ft 482 kts 270°
2026-04-15 06:52 -6.30105 109.27612 30256 ft 483 kts 268°
2026-04-15 06:52 -6.30131 109.24239 30555 ft 482 kts 268°
2026-04-15 06:52 -6.30147 109.20871 30840 ft 482 kts 268°
2026-04-15 06:53 -6.30154 109.18641 31025 ft 482 kts 269°
2026-04-15 06:53 -6.30166 109.14134 31393 ft 482 kts 269°
2026-04-15 06:53 -6.30172 109.11899 31587 ft 482 kts 269°
2026-04-15 06:53 -6.30182 109.08535 31798 ft 482 kts 269°
2026-04-15 06:54 -6.30203 109.01852 31835 ft 475 kts 269°
2026-04-15 06:54 -6.30234 108.95224 31840 ft 474 kts 268°
2026-04-15 06:55 -6.30261 108.88606 31849 ft 474 kts 269°
2026-04-15 06:55 -6.30284 108.81980 31840 ft 473 kts 269°
2026-04-15 06:56 -6.30306 108.75365 31837 ft 473 kts 269°
2026-04-15 06:56 -6.30321 108.68755 31835 ft 473 kts 269°
2026-04-15 06:57 -6.30341 108.62139 31831 ft 473 kts 269°
2026-04-15 06:57 -6.30361 108.55525 31825 ft 473 kts 269°
2026-04-15 06:58 -6.30376 108.48904 31824 ft 474 kts 269°
2026-04-15 06:58 -6.30398 108.42284 31822 ft 474 kts 269°
2026-04-15 06:59 -6.29492 108.35746 31820 ft 475 kts 288°
2026-04-15 06:59 -6.26400 108.29911 31818 ft 475 kts 309°
2026-04-15 07:00 -6.21885 108.25076 31819 ft 475 kts 314°
2026-04-15 07:00 -6.17279 108.20303 31822 ft 476 kts 314°
2026-04-15 07:01 -6.12678 108.15528 31823 ft 476 kts 314°
2026-04-15 07:01 -6.08072 108.10766 31825 ft 475 kts 315°
2026-04-15 07:02 -6.03445 108.06021 31825 ft 475 kts 315°
2026-04-15 07:02 -5.99114 108.01013 31823 ft 476 kts 302°
2026-04-15 07:03 -5.97592 107.98072 31819 ft 476 kts 291°
2026-04-15 07:03 -5.96618 107.94945 31809 ft 476 kts 281°
2026-04-15 07:03 -5.96174 107.88319 31809 ft 477 kts 269°
2026-04-15 07:04 -5.96181 107.81635 31810 ft 479 kts 269°
2026-04-15 07:04 -5.96171 107.74928 31810 ft 481 kts 269°
2026-04-15 07:05 -5.96168 107.71564 31136 ft 483 kts 269°
2026-04-15 07:05 -5.96167 107.68195 30533 ft 479 kts 269°
2026-04-15 07:05 -5.96167 107.64874 29998 ft 472 kts 269°
2026-04-15 07:05 -5.96166 107.61593 29410 ft 468 kts 269°
2026-04-15 07:06 -5.96166 107.58341 28826 ft 463 kts 269°
2026-04-15 07:06 -5.96171 107.55131 28249 ft 458 kts 269°
2026-04-15 07:06 -5.96174 107.51958 27436 ft 449 kts 269°
2026-04-15 07:06 -5.96173 107.48844 26444 ft 443 kts 269°
2026-04-15 07:07 -5.96172 107.45776 25495 ft 435 kts 269°
2026-04-15 07:07 -5.96171 107.42767 24538 ft 428 kts 269°
2026-04-15 07:07 -5.96170 107.39803 23587 ft 421 kts 269°
2026-04-15 07:07 -5.96169 107.36884 22649 ft 414 kts 269°
2026-04-15 07:08 -5.96170 107.34020 21943 ft 403 kts 269°
2026-04-15 07:08 -5.96169 107.31243 21211 ft 393 kts 269°
2026-04-15 07:08 -5.96167 107.28523 20402 ft 387 kts 270°
2026-04-15 07:08 -5.96163 107.25843 19581 ft 381 kts 270°
2026-04-15 07:09 -5.96159 107.23198 18756 ft 376 kts 270°
2026-04-15 07:09 -5.96156 107.20585 17963 ft 371 kts 270°
2026-04-15 07:09 -5.96150 107.18010 17203 ft 365 kts 270°
2026-04-15 07:09 -5.96142 107.15477 16409 ft 361 kts 270°
2026-04-15 07:10 -5.96135 107.12972 15628 ft 356 kts 270°
2026-04-15 07:10 -5.96131 107.10505 15054 ft 350 kts 270°
2026-04-15 07:10 -5.96128 107.08067 14646 ft 349 kts 270°
2026-04-15 07:10 -5.96124 107.05633 14199 ft 348 kts 270°
2026-04-15 07:11 -5.96120 107.03215 13766 ft 346 kts 270°
2026-04-15 07:11 -5.96116 107.00799 13314 ft 345 kts 270°
2026-04-15 07:11 -5.96111 106.98403 12842 ft 344 kts 270°
2026-04-15 07:11 -5.96103 106.96008 12479 ft 340 kts 270°
2026-04-15 07:12 -5.96093 106.93644 12072 ft 337 kts 270°
2026-04-15 07:12 -5.96085 106.91327 11660 ft 335 kts 269°
2026-04-15 07:12 -5.96080 106.88995 11235 ft 333 kts 270°
2026-04-15 07:12 -5.96077 106.86643 10803 ft 331 kts 270°
2026-04-15 07:13 -5.96072 106.84402 10652 ft 319 kts 270°
2026-04-15 07:13 -5.96066 106.82248 10435 ft 300 kts 270°
2026-04-15 07:13 -5.96064 106.80185 9965 ft 292 kts 268°
2026-04-15 07:13 -5.96373 106.78218 9869 ft 284 kts 253°
2026-04-15 07:14 -5.97077 106.76318 9500 ft 293 kts 248°
2026-04-15 07:14 -5.97838 106.74438 9144 ft 290 kts 248°
2026-04-15 07:14 -5.98608 106.72548 8799 ft 290 kts 248°
2026-04-15 07:14 -5.99362 106.70689 8455 ft 286 kts 248°
2026-04-15 07:15 -6.00105 106.68850 7837 ft 283 kts 248°
2026-04-15 07:15 -6.00842 106.67036 7374 ft 277 kts 248°
2026-04-15 07:15 -6.01563 106.65246 6963 ft 276 kts 248°
2026-04-15 07:15 -6.02284 106.63457 6563 ft 277 kts 248°
2026-04-15 07:16 -6.03008 106.61670 6170 ft 276 kts 248°
2026-04-15 07:16 -6.03716 106.59917 6023 ft 265 kts 247°
2026-04-15 07:16 -6.04400 106.58239 5879 ft 255 kts 248°
2026-04-15 07:16 -6.05058 106.56605 5556 ft 252 kts 248°
2026-04-15 07:17 -6.05719 106.54968 5188 ft 252 kts 248°
2026-04-15 07:17 -6.06377 106.53340 4825 ft 251 kts 248°
2026-04-15 07:17 -6.07031 106.51721 4435 ft 252 kts 248°
2026-04-15 07:17 -6.07683 106.50107 4157 ft 248 kts 248°
2026-04-15 07:18 -6.08326 106.48510 3786 ft 247 kts 248°
2026-04-15 07:18 -6.08970 106.46909 3420 ft 244 kts 248°
2026-04-15 07:18 -6.09592 106.45371 3232 ft 232 kts 248°
2026-04-15 07:18 -6.10193 106.43897 3126 ft 223 kts 245°
2026-04-15 07:19 -6.11127 106.42721 3022 ft 213 kts 212°
2026-04-15 07:19 -6.12497 106.42280 3003 ft 207 kts 179°
2026-04-15 07:19 -6.13901 106.42480 2897 ft 203 kts 168°
2026-04-15 07:19 -6.15286 106.42735 2672 ft 203 kts 168°
2026-04-15 07:20 -6.16563 106.43193 2567 ft 187 kts 141°
2026-04-15 07:20 -6.17343 106.44159 2261 ft 177 kts 110°
2026-04-15 07:20 -6.17520 106.45340 1988 ft 167 kts 83°
2026-04-15 07:20 -6.17469 106.46452 2017 ft 157 kts 87°
2026-04-15 07:21 -6.17447 106.47527 2004 ft 152 kts 86°
2026-04-15 07:21 -6.17426 106.48588 2007 ft 152 kts 86°
2026-04-15 07:21 -6.17289 106.49634 2011 ft 151 kts 70°
2026-04-15 07:21 -6.16888 106.50597 2000 ft 149 kts 69°
2026-04-15 07:22 -6.16622 106.51600 2001 ft 148 kts 63°
2026-04-15 07:22 -6.16164 106.52540 1926 ft 157 kts 69°
2026-04-15 07:22 -6.15877 106.53591 1901 ft 156 kts 81°
2026-04-15 07:22 -6.15619 106.54633 1779 ft 153 kts 64°
2026-04-15 07:23 -6.15160 106.55564 1775 ft 148 kts 60°
2026-04-15 07:23 -6.14689 106.56494 1721 ft 151 kts 63°
2026-04-15 07:23 -6.14266 106.57449 1484 ft 147 kts 63°
2026-04-15 07:23 -6.13868 106.58398 1295 ft 147 kts 63°
2026-04-15 07:24 -6.13477 106.59345 1096 ft 147 kts 64°
2026-04-15 07:24 -6.13092 106.60285 909 ft 145 kts 64°
2026-04-15 07:24 -6.12712 106.61224 719 ft 145 kts 64°
2026-04-15 07:24 -6.12308 106.62155 525 ft 146 kts 64°
2026-04-15 07:25 -6.11923 106.63095 325 ft 145 kts 65°
2026-04-15 07:25 -6.11548 106.64039 167 ft 146 kts 65°
2026-04-15 07:25 -6.11169 106.64979 41 ft 139 kts 66°
2026-04-15 07:25 -6.10851 106.65772 37 ft 100 kts 68°
2026-04-15 07:26 -6.10658 106.66259 35 ft 50 kts 69°
2026-04-15 07:26 -6.10626 106.66431 33 ft 1 kts 92°
2026-04-15 07:26 -6.10628 106.66492 33 ft 14 kts 92°
2026-04-15 07:26 -6.10639 106.66589 35 ft 13 kts 100°
2026-04-15 07:27 -6.10684 106.66651 36 ft 10 kts 156°
2026-04-15 07:27 -6.10742 106.66673 37 ft 8 kts 158°
2026-04-15 07:27 -6.10788 106.66662 37 ft 7 kts 224°
2026-04-15 07:27 -6.10810 106.66618 37 ft 9 kts 249°
2026-04-15 07:28 -6.10838 106.66546 37 ft 13 kts 248°
2026-04-15 07:28 -6.10877 106.66448 37 ft 16 kts 248°
2026-04-15 07:28 -6.10916 106.66349 37 ft 14 kts 249°
2026-04-15 07:28 -6.10945 106.66276 37 ft 9 kts 248°
2026-04-15 07:29 -6.10971 106.66214 38 ft 15 kts 248°
2026-04-15 07:29 -6.11027 106.66073 38 ft 25 kts 248°
2026-04-15 07:29 -6.11090 106.65914 38 ft 24 kts 249°
2026-04-15 07:29 -6.11152 106.65755 37 ft 24 kts 248°
2026-04-15 07:30 -6.11215 106.65595 37 ft 25 kts 249°
2026-04-15 07:30 -6.11277 106.65434 37 ft 25 kts 249°
2026-04-15 07:30 -6.11344 106.65275 38 ft 25 kts 248°
2026-04-15 07:30 -6.11408 106.65115 38 ft 25 kts 249°
2026-04-15 07:31 -6.11473 106.64951 38 ft 26 kts 248°
2026-04-15 07:31 -6.11531 106.64806 37 ft 13 kts 248°
2026-04-15 07:31 -6.11590 106.64759 39 ft 10 kts 173°
2026-04-15 07:31 -6.11652 106.64782 40 ft 9 kts 158°
2026-04-15 07:32 -6.11711 106.64795 41 ft 9 kts 185°
2026-04-15 07:32 -6.11765 106.64759 40 ft 11 kts 227°
2026-04-15 07:32 -6.11828 106.64695 38 ft 15 kts 219°
2026-04-15 07:32 -6.11906 106.64642 39 ft 13 kts 202°
2026-04-15 07:33 -6.11989 106.64653 39 ft 12 kts 155°
2026-04-15 07:33 -6.12060 106.64685 37 ft 11 kts 157°
2026-04-15 07:33 -6.12126 106.64712 38 ft 10 kts 158°
2026-04-15 07:33 -6.12185 106.64736 37 ft 9 kts 158°
2026-04-15 07:34 -6.12236 106.64757 38 ft 7 kts 158°
2026-04-15 07:34 -6.12281 106.64768 38 ft 5 kts 170°
2026-04-15 07:34 -6.12306 106.64788 38 ft 4 kts 121°
2026-04-15 07:34 -6.12317 106.64812 38 ft 3 kts 114°
2026-04-15 07:35 -6.12325 106.64830 38 ft 3 kts 114°
2026-04-15 07:35 -6.12331 106.64845 38 ft 2 kts 113°
2026-04-15 07:35 -6.12333 106.64850 36 ft 0 kts 113°